"Pseudo-MPEC" for S510942

Created 2016 Sep 22 13:57:55 UT using Find_Orb

Astrometry:
     S510942 tC2016 09 22.04703 21 46 52.30 +04 56 13.9          14.6 R      Y00
     S510942 tC2016 09 22.04809 21 47 19.91 +05 00 43.2          14.2 R      Y00
     S510942 tC2016 09 22.07846 22 01 02.97 +07 13 34.3          13.9 R      Y00
     S510942 tC2016 09 22.10436 22 13 24.49 +09 10 17.1          13.3 R      Y00
     S510942 tC2016 09 22.10502 22 13 43.97 +09 13 18.4          13.6 R      Y00
     S510942 tC2016 09 22.10527 22 13 51.27 +09 14 26.2          13.9 R      Y00
     S510942 tC2016 09 22.10559 22 14 00.75 +09 15 54.7          13.4 R      Y00
     S510942 tC2016 09 22.10711 22 14 45.35 +09 22 48.1          14.0 R      Y00
     S510942 tC2016 09 22.16364 22 45 17.87 +13 52 48.8          13.3 R      Y00
     S510942 tC2016 09 22.16388 22 45 26.81 +13 54 03.9          13.4 R      Y00
     S510942 tC2016 09 22.16414 22 45 35.81 +13 55 18.3          13.9 R      Y00
     S510942 tC2016 09 22.16444 22 45 46.12 +13 56 45.4          13.3 R      Y00
     S510942 tC2016 09 22.16481 22 45 59.58 +13 58 37.4          13.2 R      Y00
     S510942 tC2016 09 22.16672 22 47 07.59 +14 08 04.5          13.5 R      Y00

Station data:
(Y00) SONEAR Observatory, Oliveira (S20.71513 W44.78496)  Brazil.   Observers
    C. Jacques, E. Pimentel, J. Barros.  Measurer C. Jacques.  0.28-m f/2.2
    astrograph + CCD.

Orbital elements:  S510942
   Perigee 2016 Sep 22.459806 +/- 0.000344 TT = 11:02:07 (JD 2457653.959806)
Epoch 2016 Sep 22.0 TT = JDT 2457653.5                        Find_Orb
M 196.535605 +/- 0.16               (J2000 equatorial)
n 355.507672432 +/- 0.46            Peri.  171.975711 +/- 0.06
a 42596.19967 +/- 36.8              Node   322.357809 +/- 0.014
e   0.48403086 +/- 0.000492         Incl.   25.493169 +/- 0.0018
P1458.17m/1.013d           H 30.2   G  0.15   U 12.2
q 21978.32443 +/- 38.1    Q 63214.07492 +/- 39
From 14 observations 2016 Sept. 22 (2.9 hr); mean residual 3".567
Residuals in arcseconds: 
160922 Y00 1.75+ 1.61+    160922 Y00 .431- .278-    160922 Y00 3.13+ 1.40+
160922 Y00 3.76- 2.67-    160922 Y00 .367- .214+    160922 Y00 2.71- 1.19-
160922 Y00 6.44+ 3.50+    160922 Y00 8.01- 4.90-    160922 Y00 .668+ .132+
160922 Y00 1.41+ .706+    160922 Y00 1.46+ 1.28+    160922 Y00 7.68- 5.16-
160922 Y00 1.01+ .655+    160922 Y00 7.11+ 4.69+

Residuals in along-track seconds and cross-track arcseconds: 
160922 Y00 +.43s .391-    160922 Y00 -86ms 5.8m+    160922 Y00 +.49s .350+
160922 Y00 -.84s .177+    160922 Y00 -33ms .377-    160922 Y00 -.42s .320-
160922 Y00 +1.3s .542+    160922 Y00 -1.6s .095-    160922 Y00 +93ms .218+
160922 Y00 +.26s .151+    160922 Y00 +.28s .384-    160922 Y00 -1.3s .660+
160922 Y00 +.20s .017-    160922 Y00 +1.2s .520-

Ephemerides (geocentric):
Date (UTC) HH   RA              Dec         delta   r     elong  mag  svel  " sig PA
---- -- -- --  ------------   ------------  ------ ------ -----  ---  ----- ---- ---
2016 09 22 14  15 38 47.339   -25 28 21.64   35652 1.0034  58.8 17??  3.606   17 115
2016 09 22 15  16 48 38.729   -24 09 29.66   41413 1.0034  74.0 16.4  3.146   85  87
2016 09 22 16  17 40 34.746   -21 50 17.79   46550 1.0035  85.7 16.1  2.787  127  80
2016 09 22 17  18 21 19.270   -19 13 33.70   50980 1.0035  95.2 15.9  2.506  157  76
2016 09 22 18  18 54 53.927   -16 34 12.07   54695 1.0036 103.2 15.7  2.285  178  73
2016 09 22 19  19 23 45.415   -13 56 59.27   57714 1.0036 110.3 15.6  2.111  196  70
2016 09 22 20  19 49 27.264   -11 22 53.18   60057 1.0036 116.8 15.5  1.979  211  69
2016 09 22 21  20 13 02.888   -08 51 22.52   61746 1.0037 122.8 15.4  1.885  225  67
2016 09 22 22  20 35 18.434   -06 21 19.68   62795 1.0037 128.5 15.2  1.827  239  66
2016 09 22 23  20 56 50.359   -03 51 20.48   63214 1.0037 134.0 15.1  1.804  253  66
2016 09 23 00  21 18 10.362   -01 19 50.70   63006 1.0037 139.4 15.0  1.816  268  65
2016 09 23 01  21 39 49.143   +01 14 53.24   62170 1.0037 144.7 14.8  1.862  285  65
2016 09 23 02  22 02 19.968   +03 54 45.88   60698 1.0037 150.1 14.6  1.943  306  65
2016 09 23 03  22 26 22.978   +06 41 54.62   58576 1.0037 155.5 14.3  2.062  330  65
2016 09 23 04  22 52 51.525   +09 38 38.55   55787 1.0037 160.5 14.1  2.221  362  66
2016 09 23 05  23 23 02.851   +12 47 15.26   52309 1.0037 164.2 13.8  2.425  404  68
2016 09 23 06  23 58 57.841   +16 09 08.60   48120 1.0037 164.0 13.6  2.685  463  70
2016 09 23 07  00 43 59.832   +19 41 49.00   43216 1.0036 157.9 13.6  3.015  552  73
2016 09 23 08  01 44 11.397   +23 08 42.57   37646 1.0035 146.2 13.6  3.438  695  79
2016 09 23 09  03 10 17.643   +25 24 47.52   31624 1.0034 128.1 13.8  3.981  940  87
2016 09 23 10  05 16 57.356   +23 01 54.65   25863 1.0033 100.5 14.2  4.633 1357 101
2016 09 23 11  08 03 43.341   +09 51 56.67   22235 1.0032  60.2 15.9  5.147 1820 113
2016 09 23 12  10 56 54.478   -10 05 09.84   23117 1.0031  19.0 22??  5.013 1744 114
2016 09 23 13  13 23 50.879   -22 09 11.01   27818 1.0031  29.5 20??  4.393 1300 103
2016 09 23 14  15 12 37.410   -25 25 54.59   33813 1.0031  52.2 17??  3.771  971  92
2016 09 23 15  16 29 48.966   -24 42 47.92   39718 1.0031  68.8 16.6  3.273  781  84
2016 09 23 16  17 26 19.095   -22 35 01.59   45062 1.0032  81.4 16.2  2.887  671  79
2016 09 23 17  18 09 55.659   -20 01 07.05   49710 1.0032  91.5 16.0  2.585  604  75
2016 09 23 18  18 45 21.599   -17 21 40.09   53642 1.0033  99.9 15.8  2.346  564  72
2016 09 23 19  19 15 26.934   -14 43 31.90   56871 1.0033 107.3 15.7  2.159  539  70
2016 09 23 20  19 41 58.252   -12 08 27.75   59418 1.0033 113.9 15.6  2.015  526  68
2016 09 23 21  20 06 06.407   -09 36 15.02   61304 1.0034 120.0 15.4  1.910  521  67
2016 09 23 22  20 28 41.804   -07 05 53.83   62547 1.0034 125.8 15.3  1.841  523  66
2016 09 23 23  20 50 23.225   -04 36 03.83   63157 1.0034 131.4 15.2  1.807  531  65
2016 09 24 00  21 11 43.376   -02 05 13.54   63140 1.0034 136.8 15.0  1.808  546  65
2016 09 24 01  21 33 12.878   +00 28 17.65   62496 1.0035 142.2 14.9  1.844  569  65
2016 09 24 02  21 55 23.805   +03 06 20.65   61219 1.0035 147.6 14.7  1.915  600  65
2016 09 24 03  22 18 53.646   +05 50 58.71   59297 1.0035 153.1 14.4  2.022  643  65
2016 09 24 04  22 44 30.845   +08 44 27.73   56714 1.0034 158.4 14.2  2.168  702  66
2016 09 24 05  23 13 23.801   +11 49 08.31   53448 1.0034 162.9 13.9  2.358  785  67
2016 09 24 06  23 47 17.110   +15 06 50.50   49478 1.0034 164.8 13.7  2.599  904  69
2016 09 24 07  00 29 03.001   +18 36 49.94   44790 1.0033 161.0 13.6  2.905 1084  72
2016 09 24 08  01 23 44.035   +22 08 47.82   39411 1.0033 151.2 13.6  3.297 1372  77
2016 09 24 09  02 40 25.895   +24 58 59.74   33483 1.0032 135.4 13.7  3.801 1861  85
2016 09 24 10  04 33 22.857   +24 36 56.32   27510 1.0031 111.2 14.0  4.429 2709  97
2016 09 24 11  07 10 13.528   +15 12 04.23   22945 1.0030  74.7 15.1  5.038 3857 111
2016 09 24 12  10 05 46.561   -04 19 55.93   22326 1.0029  30.2 19??  5.133 4095 115
2016 09 24 13  12 43 05.315   -19 38 31.16   26141 1.0028  21.0 22??  4.598 3072 107
2016 09 24 14  14 43 27.433   -25 02 44.04   31953 1.0028  45.1 18??  3.949 2151  95
2016 09 24 15  16 09 04.321   -25 09 05.62   37964 1.0028  63.3 16.9  3.412 1606  86
2016 09 24 16  17 10 52.561   -23 17 42.24   43503 1.0029  76.9 16.3  2.995 1292  80
2016 09 24 17  17 57 47.365   -20 48 19.31   48369 1.0029  87.6 16.1  2.669 1102  75
2016 09 24 18  18 35 20.309   -18 09 19.22   52520 1.0030  96.5 15.9  2.413  982  72
2016 09 24 19  19 06 49.376   -15 30 22.15   55961 1.0030 104.2 15.7  2.211  905  70
2016 09 24 20  19 34 16.759   -12 54 16.75   58714 1.0030 111.0 15.6  2.055  855  68
2016 09 24 21  19 59 02.152   -10 21 15.00   60800 1.0031 117.3 15.5  1.938  826  67
2016 09 24 22  20 22 01.031   -07 50 26.99   62238 1.0031 123.1 15.4  1.858  812  66
2016 09 24 23  20 43 55.015   -05 20 36.91   63040 1.0031 128.8 15.2  1.814  812  65
2016 09 25 00  21 05 18.182   -02 50 16.15   63215 1.0032 134.2 15.1  1.804  823  65
2016 09 25 01  21 26 41.403   -00 17 46.90   62763 1.0032 139.7 14.9  1.829  847  65
2016 09 25 02  21 48 35.919   +02 18 38.35   61680 1.0032 145.1 14.7  1.889  886  65
2016 09 25 03  22 11 37.071   +05 00 58.77   59957 1.0032 150.6 14.5  1.985  943  65
2016 09 25 04  22 36 29.207   +07 51 26.46   57578 1.0032 156.1 14.3  2.119 1023  66
2016 09 25 05  23 04 13.336   +10 52 22.12   54523 1.0031 161.2 14.0  2.294 1137  67
2016 09 25 06  23 36 20.575   +14 05 51.65   50770 1.0031 164.6 13.7  2.519 1302  68
2016 09 25 07  00 15 17.674   +17 32 20.95   46302 1.0031 163.3 13.6  2.804 1550  71
2016 09 25 08  01 05 17.826   +21 05 46.82   41127 1.0030 155.6 13.6  3.166 1940  75
2016 09 25 09  02 13 57.724   +24 17 11.55   35337 1.0029 141.9 13.6  3.633 2593  82
2016 09 25 10  03 54 11.037   +25 21 08.99   29283 1.0028 120.7 13.8  4.227 3732  93
2016 09 25 11  06 18 27.967   +19 24 40.34   24044 1.0027  88.2 14.5  4.878 5488 107
2016 09 25 12  09 12 40.472   +01 57 28.00   21978 1.0026  44.3 17??  5.188 6541 115
2016 09 25 13  11 58 35.381   -16 08 09.92   24637 1.0026  15.3 24??  4.796 5258 110
2016 09 25 14  14 10 55.340   -24 11 23.72   30099 1.0025  37.3 19??  4.139 3617  98
2016 09 25 15  15 46 05.424   -25 25 29.37   36158 1.0026  57.4 17??  3.563 2595  88
2016 09 25 16  16 54 02.851   -23 57 20.69   41876 1.0026  72.2 16.5  3.112 2009  81
2016 09 25 17  17 44 46.844   -21 34 52.43   46957 1.0026  83.6 16.2  2.761 1659  76
2016 09 25 18  18 24 45.235   -18 57 06.17   51327 1.0027  93.0 16.0  2.485 1439  73
2016 09 25 19  18 57 49.466   -16 17 32.15   54984 1.0027 101.0 15.8  2.268 1296  70
2016 09 25 20  19 26 20.416   -13 40 24.23   57945 1.0027 108.0 15.7  2.098 1203  69
2016 09 25 21  19 51 48.304   -11 06 27.09   60233 1.0028 114.5 15.6  1.970 1143  67
2016 09 25 22  20 15 14.632   -08 35 03.84   61867 1.0028 120.4 15.4  1.879 1109  66
2016 09 25 23  20 37 24.440   -06 05 04.28   62863 1.0028 126.1 15.3  1.824 1096  65
2016 09 26 00  20 58 53.582   -03 35 02.92   63229 1.0029 131.7 15.2  1.803 1100  65
2016 09 26 01  21 20 13.510   -01 03 24.64   62968 1.0029 137.1 15.0  1.818 1123  65
2016 09 26 02  21 41 54.977   +01 31 34.89   62080 1.0029 142.6 14.8  1.867 1165  65
2016 09 26 03  22 04 31.627   +04 11 50.94   60554 1.0029 148.1 14.6  1.952 1231  65
2016 09 26 04  22 28 44.410   +06 59 31.53   58378 1.0029 153.6 14.4  2.073 1327  65
2016 09 26 05  22 55 28.166   +09 56 55.57   55532 1.0029 159.1 14.1  2.236 1465  66
2016 09 26 06  23 26 02.830   +13 06 17.69   51995 1.0028 163.6 13.8  2.444 1664  68
2016 09 26 07  00 02 34.261   +16 28 49.99   47747 1.0028 164.7 13.6  2.709 1960  70
2016 09 26 08  00 48 35.309   +20 01 22.57   42784 1.0028 159.4 13.5  3.046 2422  74
2016 09 26 09  01 50 26.620   +23 25 06.55   37163 1.0027 147.7 13.6  3.477 3181  80
2016 09 26 10  03 19 20.444   +25 27 41.15   31123 1.0026 129.1 13.7  4.032 4498  89
2016 09 26 11  05 29 45.133   +22 23 31.67   25444 1.0025 100.5 14.2  4.687 6681 102
2016 09 26 12  08 18 35.483   +08 12 22.78   22112 1.0024  59.3 16??  5.167 8779 114
2016 09 26 13  11 10 41.240   -11 33 32.95   23391 1.0023  18.5 22??  4.972 7836 113
2016 09 26 14  13 34 43.990   -22 42 42.01   28289 1.0023  29.0 20??  4.339 5441 102
2016 09 26 15  15 20 31.544   -25 28 00.87   34313 1.0023  51.0 17??  3.725 3793  91
2016 09 26 16  16 35 36.121   -24 32 32.84   40184 1.0023  67.1 16.7  3.238 2846  83
2016 09 26 17  17 30 45.636   -22 20 18.91   45474 1.0023  79.4 16.3  2.859 2289  78